Location: Killam
(52.7910°N, 111.8608°W)
Time: 08:28:54
(UTC+00:00)

NOAA 15 - Pass Details

Date: 20 December 2025
Orbit: 793 x 809 km, 98.5° (Epoch: 24 January)

Event Time Altitude Azimuth Distance (km) Brightness Sun altitude
Rises 03:01:54 0° 205° (SSW) 3,313 8.0 -33.0°
Reaches altitude 10° 03:04:46 10° 220° (SW) 2,384 7.4 -33.4°
Maximum altitude 03:08:47 22° 270° (W) 1,704 6.9 -34.0°
Drops below altitude 10° 03:12:50 10° 320° (NW) 2,390 7.5 -34.6°
Sets 03:15:43 0° 336° (NNW) 3,323 8.2 -35.1°
